TimeCDT,TemperatureF,Dew PointF,Humidity,Sea Level PressureIn,VisibilityMPH,Wind Direction,Wind SpeedMPH,Gust SpeedMPH,PrecipitationIn,Events,Conditions,WindDirDegrees,DateUTC
12:53 AM,32.0,24.1,73,30.43,10.0,North,6.9,-,N/A,,Clear,360,2012-10-27 05:53:00
1:53 AM,30.9,24.1,76,30.43,10.0,Calm,Calm,-,N/A,,Clear,0,2012-10-27 06:53:00
2:53 AM,30.0,24.1,79,30.43,10.0,Calm,Calm,-,N/A,,Clear,0,2012-10-27 07:53:00
3:53 AM,28.0,23.0,81,30.42,10.0,Calm,Calm,-,N/A,,Clear,0,2012-10-27 08:53:00
4:53 AM,24.1,21.0,88,30.42,10.0,Calm,Calm,-,N/A,,Clear,0,2012-10-27 09:53:00
5:53 AM,26.1,23.0,88,30.43,10.0,WNW,3.5,-,N/A,,Clear,290,2012-10-27 10:53:00
6:53 AM,27.0,24.1,89,30.43,10.0,Calm,Calm,-,N/A,,Clear,0,2012-10-27 11:53:00
7:53 AM,28.0,24.1,85,30.45,10.0,Calm,Calm,-,N/A,,Clear,0,2012-10-27 12:53:00
8:53 AM,30.0,25.0,82,30.47,10.0,Calm,Calm,-,N/A,,Clear,0,2012-10-27 13:53:00
9:53 AM,34.0,28.0,79,30.46,10.0,Calm,Calm,-,N/A,,Clear,0,2012-10-27 14:53:00
10:53 AM,37.9,28.0,68,30.44,10.0,Calm,Calm,-,N/A,,Clear,0,2012-10-27 15:53:00
11:53 AM,41.0,26.1,55,30.42,10.0,ENE,4.6,-,N/A,,Clear,70,2012-10-27 16:53:00
12:53 PM,43.0,26.1,51,30.39,10.0,Calm,Calm,-,N/A,,Clear,0,2012-10-27 17:53:00
1:53 PM,45.0,26.1,48,30.36,10.0,Calm,Calm,-,N/A,,Clear,0,2012-10-27 18:53:00
2:53 PM,46.9,26.1,44,30.32,10.0,NNW,3.5,-,N/A,,Clear,330,2012-10-27 19:53:00
3:53 PM,48.0,26.1,42,30.30,10.0,ENE,5.8,-,N/A,,Clear,70,2012-10-27 20:53:00
4:53 PM,48.0,26.1,42,30.29,10.0,East,4.6,-,N/A,,Clear,80,2012-10-27 21:53:00
5:53 PM,46.0,26.1,46,30.28,10.0,East,3.5,-,N/A,,Clear,80,2012-10-27 22:53:00
6:53 PM,43.0,27.0,53,30.30,10.0,Calm,Calm,-,N/A,,Clear,0,2012-10-27 23:53:00
7:53 PM,43.0,27.0,53,30.30,10.0,Calm,Calm,-,N/A,,Clear,0,2012-10-28 00:53:00
8:53 PM,39.9,30.0,68,30.32,10.0,Calm,Calm,-,N/A,,Clear,0,2012-10-28 01:53:00
9:53 PM,41.0,28.9,62,30.32,10.0,Calm,Calm,-,N/A,,Clear,0,2012-10-28 02:53:00
10:53 PM,41.0,28.4,61,30.31,10.0,Calm,Calm,-,N/A,,Scattered Clouds,0,2012-10-28 03:53:00
11:53 PM,37.9,28.9,70,30.33,10.0,Calm,Calm,-,N/A,,Scattered Clouds,0,2012-10-28 04:53:00